Terminal Aerodrome Forecast
Issued by NWS North Platte, NE

Home | Current Version | Previous Version | Graphics & Text | Print | Product List | Glossary On
Versions: 1 2 3 4 5 6 7 8 9 10 11 12 13
000
FTUS43 KLBF 242300
TAFVTN
TAF
KVTN 242322Z 2500/2524 28011KT P6SM BKN070
     FM250100 31024G33KT P6SM VCSH BKN050 OVC080
     FM251500 33014G20KT P6SM SCT050=

USA.gov is the U.S. government's official web portal to all federal, state and local government web resources and services.